Clemson, SC

10:33 PM EST on February 12, 2016 (GMT -0500)
Oconee County Regional

Weather History for KCEU - February, 2014

Change the Weather History Date:

Monday, February 24, 2014

  Actual Average Record
Temperature  
Mean Temperature 59 °F -  
Max Temperature 72 °F 58 °F 81 °F (1930)
Min Temperature 46 °F 34 °F 15 °F (1947)
Degree Days  
Heating Degree Days 6    
Growing Degree Days 9 (Base 50)    
Moisture  
Dew Point 25 °F    
Average Humidity 32    
Maximum Humidity 68    
Minimum Humidity 10    
Precipitation  
Precipitation 0.00 in - - ()
Sea Level Pressure  
Sea Level Pressure 30.02 in    
Wind  
Wind Speed 5 mph (WNW)    
Max Wind Speed 14 mph    
Max Gust Speed 18 mph    
Visibility 10 miles    
Events      
Averages and records for this station are not official NWS values.
T = Trace of Precipitation, MM = Missing Value Source: NWS Daily Summary

Daily Weather History Graph

Daily Weather History Graph

Search for Another Location

Airport or City:

Trip Planner

Search our weather history database for the weather conditions in past years. The results will help you decide how hot, cold, wet, or windy it might be!

Date:

Astronomy

Feb. 24, 2014 Rise Set
Actual Time 7:06 AM EST 6:23 PM EST
Civil Twilight 6:41 AM EST 6:48 PM EST
Nautical Twilight 6:12 AM EST 7:17 PM EST
Astronomical Twilight 5:43 AM EST 7:47 PM EST
Moon 2:57 AM EST (2/24) 1:30 PM EST (2/24)
Length of Visible Light 12h 07m
Length of Day
11h 16m
Waning Crescent, 28% of the Moon is Illuminated
Feb 24
Waning Crescent
Mar 1
New
Mar 8
First Quarter
Mar 16
Full
Mar 23
Last Quarter

Hourly Weather History & Observations

Time (EST) Temp. Dew Point Humidity Pressure Visibility Wind Dir Wind Speed Gust Speed Precip Events Conditions
12:54 AM 55.0 °F 33.1 °F 43% 29.92 in 10.0 mi WSW 8.1 mph - N/A   Clear
1:54 AM 52.0 °F 30.0 °F 43% 29.93 in 10.0 mi West 3.5 mph - N/A   Clear
2:54 AM 48.0 °F 36.0 °F 63% 29.93 in 10.0 mi Calm Calm - N/A   Clear
3:54 AM 50.0 °F 28.9 °F 44% 29.93 in 10.0 mi West 4.6 mph - N/A   Clear
4:54 AM 54.0 °F 30.9 °F 41% 29.95 in 10.0 mi NW 5.8 mph - N/A   Clear
5:54 AM 46.9 °F 37.0 °F 68% 30.00 in 10.0 mi Calm Calm - N/A   Clear
6:54 AM 51.1 °F 33.1 °F 50% 30.02 in 10.0 mi NNW 5.8 mph - N/A   Clear
7:54 AM 52.0 °F 34.0 °F 50% 30.05 in 10.0 mi Calm Calm - N/A   Clear
8:54 AM 55.0 °F 33.1 °F 43% 30.08 in 10.0 mi NNW 3.5 mph - N/A   Clear
9:54 AM 59.0 °F 32.0 °F 36% 30.08 in 10.0 mi Variable 3.5 mph - N/A   Clear
10:54 AM 63.0 °F 27.0 °F 26% 30.08 in 10.0 mi NNW 4.6 mph - N/A   Clear
11:54 AM 66.0 °F 25.0 °F 21% 30.06 in 10.0 mi NNW 4.6 mph - N/A   Clear
12:54 PM 66.0 °F 28.0 °F 24% 30.04 in 10.0 mi Variable 4.6 mph - N/A   Clear
1:54 PM 69.1 °F 26.1 °F 20% 30.00 in 10.0 mi Variable 5.8 mph - N/A   Clear
2:54 PM 72.0 °F 12.9 °F 10% 29.99 in 10.0 mi West 10.4 mph 18.4 mph N/A   Clear
3:54 PM 71.1 °F 14.0 °F 11% 30.00 in 10.0 mi WSW 10.4 mph 17.3 mph N/A   Clear
4:54 PM 69.1 °F 15.1 °F 13% 30.01 in 10.0 mi West 13.8 mph - N/A   Clear
5:54 PM 66.9 °F 12.0 °F 12% 30.04 in 10.0 mi West 9.2 mph - N/A   Clear
6:54 PM 61.0 °F 16.0 °F 17% 30.05 in 10.0 mi West 9.2 mph - N/A   Clear
7:54 PM 60.1 °F 15.1 °F 17% 30.07 in 10.0 mi WNW 3.5 mph - N/A   Clear
8:54 PM 57.0 °F 21.9 °F 26% 30.09 in 10.0 mi NNE 3.5 mph - N/A   Clear
9:54 PM 55.9 °F 21.9 °F 27% 30.09 in 10.0 mi Calm Calm - N/A   Clear
10:54 PM 53.1 °F 21.9 °F 30% 30.08 in 10.0 mi Calm Calm - N/A   Clear
11:54 PM 50.0 °F 21.9 °F 33% 30.08 in 10.0 mi Calm Calm - N/A   Clear